Location: Asheville, NC
(35.6000°N, 82.5500°W)
Time: 02:26:47
(UTC-04:00)

ZACube-1 - Pass Details

Date: 10 March 2018
Orbit: 584 x 668 km, 97.6° (Epoch: 20 June)

Event Time Altitude Azimuth Distance (km) Brightness Sun altitude
Rises 19:10:30 0° 147° (SSE) 2,913 ? -8.3°
Reaches altitude 10° 19:12:50 10° 139° (SE) 1,995 ? -8.8°
Maximum altitude 19:16:48 36° 73° (ENE) 984 ? -9.6°
Drops below altitude 10° 19:20:42 10° 7° (N) 1,960 ? -10.4°
Sets 19:22:58 0° 359° (N) 2,855 ? -10.9°
